Location: Burgberg
(50.1428°N, 11.0671°E)
Time: 06:28:43
(UTC+00:00)

Cosmos 2228 - Pass Details

Date: 26 January 2020
Orbit: 588 x 619 km, 82.5° (Epoch: 24 February)

Event Time Altitude Azimuth Distance (km) Brightness Sun altitude
Exits shadow 03:54:13 27° 140° (SE) 1,190 4.7 -29.3°
Maximum altitude 03:55:59 40° 92° (E) 920 4.3 -29.0°
Drops below altitude 10° 04:00:05 10° 23° (NNE) 1,987 5.9 -28.4°
Sets 04:02:24 0° 17° (NNE) 2,893 6.7 -28.0°
